Dewpoint
30 27 27 25 24 23 23 22 21 21 21 21 23 23 20 21 20 21 20 20 17 17 16 16 15 14 15 15 15 16 17 18 17 17 18 19 20 21 22 23 25 25 26 31 29 29 30 31 30 31 32 31 31 30 32 33 34 33 33 35 38 41 41 42 45 48 49 49 50 50 50 49 50 50 51 51 51 50 50 50 49 49 48 49 48 47
27 27 27 26 24 23 22 22 21 21 21 21 22 23 21 24 21 21 20 20 18 18 17 15 14 16 16 16 16 17 18 17 17 18 18 17 18 22 23 25 26 26 29 29 28 27 28 29 31 31 31 32 30 31 32 34 33 33 34 35 36 39 39 40 41 45 47 48 48 48 49 49 48 49 48 48 49 49 50 48 48 48 47 47 46 45
28 26 26 25 25 25 23 22 22 21 22 23 22 23 23 22 23 21 21 21 18 18 16 15 14 15 16 17 18 18 17 18 18 20 20 21 23 24 26 25 26 28 28 27 27 29 28 30 30 30 30 30 30 32 33 34 33 34 34 35 36 37 39 39 39 42 45 47 48 47 47 47 47 48 48 48 47 47 47 46 46 46 46 46 44 44
27 28 25 25 25 24 23 23 22 23 23 23 23 23 22 25 24 21 19 18 17 17 16 17 16 17 18 19 19 19 17 18 22 22 24 26 24 25 25 26 27 27 28 28 28 28 28 29 29 30 30 30 31 30 31 32 33 33 34 35 36 36 37 38 38 39 43 45 47 48 47 47 46 45 45 46 45 44 44 44 44 44 44 45 44 43
25 27 25 26 26 24 24 24 24 22 22 27 27 25 23 23 21 20 19 19 19 19 19 18 19 18 20 18 16 16 17 18 21 20 22 26 28 28 30 30 30 28 28 28 28 28 28 28 28 29 30 30 30 31 31 32 32 32 34 35 35 36 36 37 37 39 41 45 46 46 45 44 44 43 42 42 42 42 42 43 42 42 43 43 43 43
25 26 27 25 27 25 25 23 26 28 23 24 28 26 24 23 21 20 20 20 19 19 20 20 19 20 19 16 14 15 18 18 18 19 20 23 26 27 27 28 29 31 30 29 28 28 28 28 28 28 29 30 30 31 31 31 32 32 33 33 34 35 36 36 37 38 39 40 41 42 41 41 41 40 41 40 40 41 41 41 42 42 41 42 42 42
26 27 29 28 28 30 28 25 27 25 24 25 22 24 23 21 22 22 21 23 20 18 20 20 19 19 21 21 19 16 18 17 18 18 22 23 24 26 28 29 28 28 29 30 29 28 28 28 27 27 28 29 29 30 32 32 31 30 30 31 33 34 35 37 37 38 37 38 39 40 40 40 40 39 40 40 41 40 40 41 40 40 40 40 40 41
27 26 28 30 26 29 31 26 27 25 25 22 31 28 24 19 23 25 24 24 20 24 25 22 21 19 20 20 21 19 18 16 17 20 23 23 24 26 26 28 28 29 28 29 28 28 28 27 27 26 27 27 28 29 31 32 32 31 29 30 31 32 33 35 36 37 38 36 38 39 40 39 38 39 39 39 37 39 38 38 39 38 38 39 39 39
24 31 30 29 29 27 26 26 33 26 25 24 28 29 24 21 24 26 25 24 24 23 23 22 26 21 20 21 19 18 17 16 16 21 22 24 25 26 27 27 28 28 28 27 28 27 27 27 27 26 26 27 28 29 30 30 31 32 31 31 30 30 32 33 34 36 37 37 37 37 37 37 38 38 38 37 37 36 37 37 37 37 36 37 38 38
23 29 28 26 28 24 27 26 29 27 24 34 30 28 28 30 26 26 22 22 22 19 21 22 24 20 19 21 18 18 17 16 18 21 22 24 26 27 27 28 27 26 28 28 27 27 27 27 27 28 27 27 28 29 31 30 30 30 31 30 30 30 30 31 32 34 35 36 36 36 37 38 38 37 37 37 36 37 37 37 37 36 36 35 35 36
25 25 29 26 27 25 23 27 33 31 27 30 32 27 25 28 26 24 25 20 21 19 22 24 23 21 17 21 18 21 21 15 18 22 24 26 26 25 26 26 27 25 26 26 26 26 26 27 27 27 27 27 28 29 29 30 29 29 29 30 30 30 30 30 30 31 33 34 35 35 36 36 36 37 37 37 37 36 36 36 36 36 36 35 34 35
25 25 26 27 25 26 23 30 30 32 33 32 25 24 23 23 22 23 22 23 20 20 24 22 23 21 16 16 20 15 17 16 17 21 23 24 25 26 25 25 25 25 25 25 24 25 26 26 26 27 27 27 27 27 28 29 29 28 27 28 29 30 30 30 30 30 31 31 32 33 34 34 34 34 35 35 35 35 35 36 36 35 35 34 35 34
30 29 28 30 29 23 28 24 26 30 29 25 22 22 20 19 21 20 20 19 19 20 22 21 24 21 18 15 12 14 15 20 20 22 24 24 24 24 24 24 24 25 24 24 23 24 25 26 26 26 26 27 27 28 28 28 28 27 25 25 26 28 30 30 30 30 30 30 30 31 31 33 33 33 34 34 34 35 34 34 34 34 34 34 35 33
28 35 31 31 28 24 25 22 24 24 25 22 21 21 20 19 20 20 21 22 21 25 21 20 24 19 18 17 18 15 22 23 25 26 26 25 23 23 24 23 21 24 24 24 23 23 24 25 26 26 26 26 26 26 27 27 27 25 25 24 24 25 27 28 29 29 29 29 29 30 30 30 30 32 32 32 32 32 32 34 33 33 33 33 34 34
23 23 29 30 26 26 23 22 24 24 25 22 28 23 22 22 22 21 21 20 22 23 20 24 21 20 18 16 23 23 24 26 27 27 27 26 25 24 22 22 20 20 21 22 22 22 22 23 24 25 25 26 26 26 27 26 26 26 24 24 23 24 25 26 27 28 28 29 29 29 29 29 29 30 30 31 32 31 32 33 33 32 33 32 32 33
25 25 27 29 31 24 27 26 23 27 27 27 28 28 24 23 26 22 23 24 24 23 22 23 19 20 18 22 25 25 25 25 25 24 24 23 22 23 21 21 20 19 19 21 21 21 21 22 23 25 25 25 26 26 26 26 27 27 25 23 23 23 24 25 26 26 26 27 27 27 27 28 28 28 29 30 30 30 31 32 32 32 32 32 32 33
27 24 30 34 25 23 26 25 24 26 24 27 25 22 23 29 26 26 27 28 27 23 20 24 19 20 18 21 24 24 23 23 23 22 22 21 21 22 22 21 20 20 19 19 20 19 19 20 21 24 24 25 25 26 26 26 27 26 24 23 22 23 23 23 25 26 26 27 27 26 25 26 27 27 28 28 29 29 30 30 31 31 31 32 32 33
28 27 32 30 29 24 27 27 27 24 29 26 24 25 30 29 29 25 21 22 21 18 19 23 19 17 17 17 23 23 22 22 21 21 21 22 22 21 21 21 21 20 20 18 18 18 19 19 20 22 23 23 24 25 25 25 25 26 25 23 21 21 22 23 23 23 24 26 27 26 25 25 25 25 26 27 27 28 28 28 28 29 31 31 33 33
30 25 27 28 29 31 27 27 25 27 30 24 25 33 25 23 23 23 22 19 19 19 19 17 18 18 20 19 20 21 21 21 21 21 20 20 20 21 20 20 20 20 20 19 18 19 19 18 19 20 21 23 24 25 25 25 24 23 24 23 20 20 19 20 23 22 23 25 26 27 25 23 24 23 24 26 26 27 27 27 28 29 29 30 31 30
32 27 27 32 30 30 28 27 23 25 28 30 29 25 32 25 23 22 23 25 24 21 21 21 19 18 24 15 23 22 22 22 21 21 20 20 20 20 21 21 20 20 19 19 18 19 19 19 19 20 22 23 24 24 26 26 24 22 22 20 19 19 19 20 19 19 20 22 22 25 23 23 23 22 22 21 24 23 25 26 27 27 27 28 28 29
29 29 25 29 30 28 24 26 23 23 21 23 22 21 26 27 28 28 27 24 23 22 21 19 18 20 20 25 24 23 23 22 22 22 22 20 20 20 20 20 20 18 18 18 18 18 18 18 19 21 22 24 25 25 25 25 24 23 23 22 21 19 19 18 19 20 19 18 18 20 21 21 22 22 22 20 21 19 22 24 26 26 27 26 27 27
29 29 25 26 26 25 24 27 24 27 24 23 22 23 23 23 23 23 21 26 25 22 20 19 18 23 22 26 25 25 25 24 25 23 22 21 20 21 21 20 19 19 17 17 17 17 19 17 18 19 20 22 22 23 22 23 23 22 20 21 23 22 21 20 19 21 21 21 19 19 18 20 21 21 20 19 20 18 21 22 22 24 25 25 26 26
33 32 29 26 25 24 25 24 25 25 28 27 26 25 26 23 22 21 20 22 25 23 25 23 21 20 27 26 25 25 24 23 23 23 22 22 21 20 18 18 17 16 16 16 16 16 17 17 17 17 18 18 19 20 21 22 20 20 20 19 21 19 17 18 22 22 23 21 18 18 19 21 19 19 17 18 19 16 17 21 23 24 24 25 25 25
34 31 29 29 29 30 29 29 29 28 28 30 29 30 29 25 25 23 21 23 24 25 22 21 20 24 26 27 25 25 25 26 23 22 21 21 22 20 18 16 15 15 14 15 15 14 15 15 15 15 17 18 18 19 20 21 21 24 24 24 23 20 17 16 19 20 21 21 16 16 17 17 21 18 18 17 17 17 18 19 20 23 25 25 25 25
29 30 29 24 23 22 21 22 23 33 32 29 28 29 32 32 32 31 30 29 25 25 24 22 18 20 30 26 27 26 25 24 24 24 24 25 24 22 16 14 13 13 14 14 13 14 13 14 14 14 15 16 18 18 19 21 19 18 21 20 18 19 17 18 18 17 19 18 14 13 13 15 17 16 16 19 18 18 19 20 20 22 22 23 24 25
31 30 29 23 20 18 17 17 17 21 28 32 31 29 31 30 30 29 24 25 21 25 25 23 23 27 28 28 26 25 24 24 27 21 25 25 24 21 20 18 16 13 12 13 12 14 14 14 13 11 13 14 14 16 16 17 16 17 17 17 17 17 17 17 16 14 15 16 15 15 13 13 16 18 18 16 16 17 19 20 22 23 24 23 23 24
30 32 30 28 25 21 22 24 27 29 26 24 25 28 28 31 32 32 29 26 23 24 23 24 24 24 25 27 26 25 25 24 24 24 23 25 24 25 24 22 20 17 15 13 13 16 15 14 12 13 13 13 13 13 14 15 15 15 16 15 14 15 16 17 16 14 14 15 14 13 11 11 14 18 19 19 18 18 19 18 20 22 24 24 24 23
28 24 25 26 27 26 26 25 23 23 20 20 22 21 23 25 27 27 23 19 23 22 18 22 23 25 24 24 26 27 26 25 26 24 24 24 24 23 23 21 19 14 13 13 14 14 13 14 14 15 14 13 14 14 15 16 17 18 17 17 16 15 16 20 15 13 13 13 13 12 13 14 14 18 21 22 21 20 18 18 20 22 23 25 25 25
26 21 23 22 21 20 20 18 18 19 21 21 21 21 21 22 24 25 26 26 26 23 20 21 23 24 23 23 24 23 23 25 25 25 25 24 23 23 23 20 16 14 10 10 11 12 12 15 16 15 16 16 17 16 16 18 17 19 19 19 17 16 15 16 15 13 12 12 12 13 13 14 15 19 20 20 21 20 20 20 20 21 22 23 24 26
28 23 24 24 24 23 22 22 22 22 22 22 23 23 23 23 23 22 22 23 23 23 24 24 23 22 21 21 22 23 26 27 27 25 22 20 20 21 22 21 18 12 9 9 10 11 13 13 14 15 16 17 17 17 17 17 17 18 19 19 18 16 16 17 16 14 13 13 13 13 14 14 14 16 19 20 20 19 19 19 18 20 22 24 24 23
27 22 23 26 23 23 22 22 23 24 24 25 26 25 24 23 23 23 23 22 23 23 21 20 20 19 19 21 23 24 23 23 20 15 14 15 17 18 19 20 18 15 12 9 10 10 11 13 13 15 15 16 17 17 18 18 18 18 17 17 16 15 15 16 15 15 13 14 14 14 14 15 15 16 18 19 19 22 22 19 19 21 22 25 26 26
30 25 26 26 22 22 25 25 24 24 24 23 22 22 21 20 19 20 20 21 19 18 18 17 18 16 15 25 25 23 19 18 18 16 13 10 9 12 15 16 17 16 13 11 9 10 11 12 13 14 15 16 17 17 17 18 18 16 15 15 15 15 16 16 15 15 14 14 14 15 15 14 16 17 19 20 22 21 21 21 21 21 22 25 27 26
28 27 25 23 21 20 23 22 22 22 21 19 20 21 22 21 20 20 19 20 19 18 17 16 15 22 23 24 23 22 21 20 14 12 11 10 10 10 9 11 14 14 13 12 12 11 11 12 13 15 15 16 17 18 18 18 17 16 16 16 15 15 15 15 15 15 15 15 15 14 14 15 17 18 20 21 21 21 21 20 19 19 20 20 22 26
26 25 23 22 19 19 22 22 21 19 12 13 23 22 20 19 19 18 17 16 14 14 18 22 19 22 23 21 21 18 19 18 15 13 12 10 8 8 9 11 12 12 12 12 11 10 10 11 12 13 15 16 17 17 18 18 17 16 16 14 14 14 15 16 16 15 15 16 16 15 14 15 19 19 20 20 21 20 20 19 18 18 18 19 20 23
23 24 21 22 18 16 17 19 16 11 11 25 23 22 19 19 19 18 17 14 19 21 22 21 21 21 21 17 15 10 8 6 6 6 8 9 12 12 11 11 10 11 11 9 9 9 10 11 12 13 15 16 17 18 19 18 15 15 15 14 14 14 15 15 16 16 16 16 15 15 17 17 18 18 18 19 19 19 18 17 18 17 17 16 17 19
21 19 18 17 15 16 14 13 8 3 18 18 19 19 21 20 18 18 16 18 19 20 20 19 19 19 14 7 7 7 6 4 9 10 12 12 15 15 14 14 14 14 14 13 10 10 11 11 12 14 16 19 19 17 16 15 14 13 13 14 14 15 15 16 18 16 15 15 15 15 14 15 17 17 18 18 18 17 17 17 17 15 15 16 15 16
23 19 17 13 16 10 12 11 11 15 15 17 18 17 16 14 16 16 13 14 18 19 20 20 18 18 13 7 7 5 7 14 10 7 8 12 20 21 20 17 16 16 16 16 12 10 11 12 15 18 19 18 17 15 15 14 14 14 14 15 14 18 17 17 16 14 14 15 13 14 13 14 15 16 16 16 17 17 16 15 14 14 14 14 13 14
22 21 21 18 16 15 12 11 10 10 8 10 14 19 17 17 16 17 16 15 18 21 23 23 17 14 12 11 13 8 19 13 8 7 4 12 20 26 18 19 13 12 13 13 13 14 14 16 19 18 18 16 16 15 15 14 15 14 14 15 14 16 14 15 14 13 15 12 15 12 11 13 15 15 15 16 16 15 15 13 14 13 13 12 12 12
22 20 19 18 16 13 11 9 7 6 7 14 14 16 19 18 21 20 17 12 18 20 22 21 17 15 13 10 12 18 14 7 7 8 3 14 13 9 6 7 8 10 11 12 13 14 17 20 19 18 18 16 16 15 14 15 15 14 14 14 13 13 14 13 11 12 12 11 9 9 11 12 13 14 14 13 14 14 13 13 12 13 13 11 12 12
18 17 18 16 16 16 14 11 8 8 6 14 14 15 15 17 18 14 4 2 20 20 22 21 19 19 17 13 11 16 14 5 5 3 2 2 5 8 9 9 10 10 11 11 12 16 19 18 17 17 17 16 15 15 13 13 14 16 13 11 10 12 13 10 10 9 8 7 8 9 11 12 12 12 13 12 12 12 11 11 11 11 10 11 10 10
15 15 14 12 13 14 16 12 12 12 16 17 17 14 16 18 15 7 3 4 20 20 22 22 20 20 18 11 9 10 17 12 11 9 8 7 6 6 9 12 12 13 14 14 17 23 17 17 17 16 15 15 13 13 12 13 15 13 12 10 9 10 9 7 6 6 6 7 8 9 10 9 10 10 10 10 9 9 9 9 10 10 9 8 9 9
9 12 11 12 11 10 9 8 7 9 14 18 18 16 16 14 8 6 12 21 20 21 22 22 20 20 15 12 9 9 6 7 9 8 7 8 9 9 10 11 11 12 13 18 18 19 16 16 16 15 14 13 10 11 12 13 13 11 9 10 9 8 4 4 3 4 7 7 7 7 7 6 6 6 6 6 6 6 5 6 7 7 7 7 7 7
5 5 4 4 7 9 10 9 7 4 11 21 16 14 14 11 10 15 13 18 21 24 23 23 21 18 12 11 9 9 8 7 7 8 8 8 9 9 10 11 12 14 16 16 16 16 16 15 14 12 11 9 9 9 10 13 12 11 10 9 6 4 2 2 3 4 4 4 3 3 3 3 3 3 3 3 3 4 3 2 3 3 5 5 5 5
15 5 4 4 5 1 2 4 6 8 11 18 16 10 13 16 15 12 14 14 17 16 16 14 16 16 14 10 9 8 8 8 8 9 9 9 8 10 9 10 13 16 16 16 16 15 15 11 10 9 8 7 8 9 9 11 10 9 8 6 2 1 4 3 2 2 2 2 1 1 0 1 1 1 1 1 1 1 1 1 1 1 1 1 2 2
13 10 9 3 6 3 1 3 10 10 12 14 15 13 11 13 16 18 18 15 14 11 12 10 8 8 8 7 9 8 8 8 8 8 8 8 8 9 10 15 16 16 16 15 13 14 11 8 8 8 7 6 7 5 8 8 8 6 4 2 0 2 1 1 1 0 -1 -1 -1 -1 -1 -1 -1 -1 -1 -1 -1 -2 -2 -2 -1 -2 -1 1 0 0
9 9 11 12 9 11 9 10 12 10 10 10 9 13 12 12 14 17 18 18 15 13 11 10 9 8 8 7 8 8 8 8 8 8 8 8 9 12 16 16 16 16 14 13 10 10 10 8 8 8 7 5 6 5 6 5 4 2 1 0 0 1 0 -0 -1 -2 -2 -2 -2 -2 -2 -2 -2 -2 -2 -2 -2 -3 -3 -3 -3 -4 -4 -3 -3 -2
11 10 13 9 8 6 5 7 6 7 7 8 6 9 14 16 15 12 11 11 10 9 8 9 8 8 8 9 9 9 9 10 10 9 9 11 14 15 16 15 14 10 9 11 6 10 7 7 7 6 6 5 4 4 2 2 1 1 0 0 -1 -0 -0 -1 -2 -3 -3 -3 -3 -3 -3 -3 -4 -4 -3 -3 -4 -4 -4 -5 -5 -5 -5 -5 -5 -5
9 9 9 9 8 5 5 6 6 6 6 7 7 8 7 8 7 9 10 8 7 9 9 9 11 12 13 14 11 10 10 10 10 10 12 14 15 14 13 11 8 7 6 5 5 7 7 6 5 4 4 3 1 0 0 0 -0 -0 -1 -1 -1 -1 -2 -2 -3 -4 -4 -4 -4 -5 -4 -5 -4 -4 -5 -5 -5 -6 -6 -6 -6 -6 -7 -7 -7 -7
8 8 9 8 6 7 8 8 7 7 7 7 8 8 8 9 8 7 7 9 8 8 8 10 11 11 10 10 10 10 13 13 14 15 15 15 13 11 9 6 4 4 3 4 4 6 4 3 3 2 1 -0 -1 -1 -1 -1 -1 -1 -2 -1 -2 -2 -3 -4 -4 -4 -4 -4 -5 -6 -5 -5 -5 -6 -7 -7 -6 -7 -6 -6 -7 -7 -7 -4 -4 -6
9 10 8 9 9 9 7 7 7 6 7 5 6 6 5 5 5 5 6 8 10 10 11 13 13 13 13 14 15 15 16 15 15 13 14 9 7 6 4 2 2 2 2 2 2 2 2 2 1 -1 -2 -2 -2 -2 -3 -3 -3 -2 -3 -2 -3 -3 -4 -4 -5 -5 -5 -5 -6 -6 -6 -7 -8 -7 -8 -8 -8 -7 -6 -2 7 3 -3 -3 6 10
9 9 7 9 8 8 9 9 9 9 8 7 8 9 9 8 8 8 8 9 11 12 12 13 13 15 13 14 12 13 12 11 9 7 5 5 4 1 -1 -1 0 -1 -1 0 1 1 -0 -2 -2 -3 -3 -3 -3 -3 -3 -4 -4 -3 -3 -3 -3 -3 -3 -3 -5 -6 -7 -7 -7 -7 -7 -8 -9 -8 -8 -8 -8 -8 -8 -8 -7 6 9 10 9 10